Location: Grand Rapids
(42.9630°N, 85.6680°W)
Time: 01:46:14
(UTC-04:00)

S-56A Canister/Altair - Pass Details

Date: 02 June 2024
Orbit: 637 x 2489 km, 38.9° (Epoch: 21 June)

Event Time Altitude Azimuth Distance (km) Brightness Sun altitude
Rises 04:47:50 0° 238° (WSW) 6,038 - -11.9°
Reaches altitude 10° 04:51:44 10° 235° (SW) 5,108 - -11.4°
Exits shadow 04:52:27 12° 234° (SW) 4,940 11.0 -11.3°
Maximum altitude 05:06:29 62° 160° (SSE) 2,607 10.1 -9.4°
Drops below altitude 10° 05:19:01 10° 84° (E) 4,418 12.3 -7.7°
Sets 05:22:08 0° 81° (E) 5,206 12.9 -7.3°
